Location: Lachaise
(45.8833°N, 1.8500°E)
Time: 04:36:29
(UTC+00:00)

ADEOS II - Pass Details

Date: 07 June 2020
Orbit: 800 x 800 km, 98.5° (Epoch: 10 July)

Event Time Altitude Azimuth Distance (km) Brightness Sun altitude
Rises 02:43:08 0° 11° (N) 3,320 6.5 -11.1°
Reaches altitude 10° 02:45:29 10° 8° (N) 2,386 5.5 -10.8°
Maximum altitude 02:50:41 63° 288° (WNW) 890 2.2 -10.2°
Enters shadow 02:55:36 11° 209° (SSW) 2,268 3.8 -9.6°
